Location: Newark
(40.3500°N, 15.2333°E)
Time: 06:17:17
(UTC+00:00)

Altair - Pass Details

Date: 23 January 2020
Orbit: 1502 x 1682 km, 47.2° (Epoch: 17 February)

Event Time Altitude Azimuth Distance (km) Brightness Sun altitude
Rises 08:36:52 0° 243° (WSW) 4,882 10.0 20.2°
Reaches altitude 10° 08:40:00 10° 244° (WSW) 3,912 9.6 20.6°
Maximum altitude 08:50:08 84° 333° (NNW) 1,693 8.1 21.8°
Drops below altitude 10° 09:00:22 10° 63° (ENE) 3,935 9.8 22.9°
Sets 09:03:31 0° 64° (ENE) 4,913 10.2 23.2°
